, AK

(GMT )
Eureka

Weather History for PAZK - November, 2013

Change the Weather History Date:

Thursday, November 14, 2013

  Actual Average Record
Temperature  
Mean Temperature 22 °F -  
Max Temperature 28 °F 13 °F 28 °F (2000)
Min Temperature 15 °F 4 °F -18 °F (2006)
Degree Days  
Heating Degree Days 44    
Moisture  
Dew Point 19 °F    
Average Humidity 87    
Maximum Humidity 100    
Minimum Humidity 63    
Precipitation  
Precipitation 0.00 in - - ()
Sea Level Pressure  
Sea Level Pressure 29.74 in    
Wind  
Wind Speed 10 mph (West)    
Max Wind Speed 20 mph    
Max Gust Speed 28 mph    
Visibility 8 miles    
Events      
Averages and records for this station are not official NWS values.
T = Trace of Precipitation, MM = Missing Value Source: NWS Daily Summary

Daily Weather History Graph

Daily Weather History Graph

Search for Another Location

Airport or City:

Trip Planner

Search our weather history database for the weather conditions in past years. The results will help you decide how hot, cold, wet, or windy it might be!

Date:

Astronomy

Nov. 14, 2013 Rise Set
Actual Time 8:58 AM AKST 4:07 PM AKST
Civil Twilight 8:04 AM AKST 5:00 PM AKST
Nautical Twilight 7:09 AM AKST 5:56 PM AKST
Astronomical Twilight 6:17 AM AKST 6:48 PM AKST
Moon 3:16 PM AKST (11/14) 5:14 AM AKST (11/14)
Length of Visible Light 8h 55m
Length of Day
7h 09m
Waxing Gibbous, 92% of the Moon is Illuminated
Nov 14
Waxing Gibbous
Nov 17
Full
Nov 25
Last Quarter
Dec 2
New
Dec 9
First Quarter

Hourly Weather History & Observations

Time (AKST) Temp. Windchill Dew Point Humidity Pressure Visibility Wind Dir Wind Speed Gust Speed Precip Events Conditions
12:16 AM 15.8 °F 2.7 °F 15.8 °F 100% 29.88 in 10.0 mi West 11.5 mph - N/A   Clear
12:36 AM 17.6 °F 6.4 °F 17.6 °F 100% 29.86 in 10.0 mi West 9.2 mph - N/A   Clear
12:56 AM 17.6 °F 5.7 °F 15.8 °F 93% 29.85 in 10.0 mi WSW 10.4 mph - N/A   Clear
1:16 AM 19.4 °F 7.9 °F 19.4 °F 100% 29.85 in 10.0 mi WSW 10.4 mph - N/A   Clear
1:36 AM 21.2 °F 10.1 °F 19.4 °F 93% 29.83 in 10.0 mi SW 10.4 mph - N/A   Clear
1:56 AM 21.2 °F 11.7 °F 19.4 °F 93% 29.82 in 10.0 mi West 8.1 mph - N/A   Partly Cloudy
2:16 AM 21.2 °F 13.6 °F 21.2 °F 100% 29.81 in 10.0 mi WSW 5.8 mph - N/A   Scattered Clouds
2:36 AM 24.8 °F 14.0 °F 24.8 °F 100% 29.79 in 10.0 mi SW 11.5 mph 18.4 mph N/A   Mostly Cloudy
2:56 AM 24.8 °F 14.0 °F 23.0 °F 93% 29.78 in 7.0 mi SSW 11.5 mph - N/A   Overcast
3:16 AM 24.8 °F 11.5 °F 23.0 °F 93% 29.77 in 8.0 mi SW 17.3 mph 24.2 mph N/A   Overcast
3:36 AM 26.6 °F 16.8 °F 26.6 °F 100% 29.76 in 5.0 mi WSW 10.4 mph 23.0 mph N/A   Overcast
3:56 AM 26.6 °F 13.4 °F 26.6 °F 100% 29.74 in 1.8 mi WSW 18.4 mph 26.5 mph N/A   Overcast
4:16 AM 26.6 °F 13.1 °F 26.6 °F 100% 29.72 in 4.0 mi SW 19.6 mph 27.6 mph N/A   Overcast
4:36 AM 26.6 °F 14.3 °F 26.6 °F 100% 29.72 in 6.0 mi SW 16.1 mph 24.2 mph N/A   Overcast
4:56 AM 26.6 °F 15.2 °F 26.6 °F 100% 29.73 in 4.0 mi WSW 13.8 mph 20.7 mph N/A   Overcast
5:16 AM 28.4 °F 19.1 °F 28.4 °F 100% 29.72 in 3.0 mi WSW 10.4 mph - N/A   Overcast
5:36 AM 26.6 °F 19.1 °F 26.6 °F 100% 29.70 in 2.0 mi WSW 6.9 mph - N/A   Overcast
5:56 AM 28.4 °F - 28.4 °F 100% 29.68 in 0.5 mi Calm Calm - N/A   Overcast
6:16 AM 28.4 °F 18.0 °F 28.4 °F 100% 29.68 in 5.0 mi SW 12.7 mph 17.3 mph N/A   Overcast
6:36 AM 28.4 °F 20.4 °F 28.4 °F 100% 29.67 in 0.5 mi South 8.1 mph - N/A   Overcast
6:56 AM 28.4 °F - 28.4 °F 100% 29.68 in 0.8 mi Calm Calm - N/A   Overcast
7:16 AM 28.4 °F 23.3 °F 28.4 °F 100% 29.69 in 0.2 mi SSW 4.6 mph - N/A   Overcast
7:36 AM 28.4 °F 19.7 °F 28.4 °F 100% 29.68 in 1.2 mi SSW 9.2 mph - N/A   Overcast
7:56 AM 28.4 °F 19.7 °F 26.6 °F 93% 29.67 in 0.2 mi SW 9.2 mph - N/A   Overcast
8:16 AM 28.4 °F 21.2 °F 28.4 °F 100% 29.68 in 0.5 mi SSW 6.9 mph - N/A   Overcast
8:36 AM 17.6 °F 4.3 °F 8.6 °F 68% 29.69 in 10.0 mi NE 12.7 mph 23.0 mph N/A   Overcast
8:56 AM 19.4 °F 7.9 °F 15.8 °F 86% 29.69 in 10.0 mi NNE 10.4 mph 16.1 mph N/A   Overcast
9:16 AM 19.4 °F 6.6 °F 17.6 °F 93% 29.70 in 10.0 mi NE 12.7 mph 16.1 mph N/A   Overcast
9:36 AM 19.4 °F 10.4 °F 17.6 °F 93% 29.71 in 10.0 mi NNE 6.9 mph - N/A   Overcast
9:56 AM 19.4 °F 10.4 °F 17.6 °F 93% 29.72 in 10.0 mi NE 6.9 mph - N/A   Overcast
10:16 AM 19.4 °F 10.4 °F 19.4 °F 100% 29.71 in 4.0 mi NNE 6.9 mph - N/A   Mostly Cloudy
10:36 AM 19.4 °F 10.4 °F 17.6 °F 93% 29.72 in 0.5 mi NE 6.9 mph - N/A   Overcast
10:56 AM 21.2 °F 12.6 °F 19.4 °F 93% 29.72 in 1.8 mi North 6.9 mph - N/A   Overcast
11:16 AM 21.2 °F 12.6 °F 21.2 °F 100% 29.72 in 1.8 mi NNW 6.9 mph - N/A   Overcast
11:36 AM 21.2 °F 12.6 °F 21.2 °F 100% 29.72 in 7.0 mi North 6.9 mph - N/A   Overcast
11:56 AM 21.2 °F 12.6 °F 21.2 °F 100% 29.72 in 10.0 mi NNE 6.9 mph - N/A   Scattered Clouds
12:16 PM 21.2 °F 13.6 °F 21.2 °F 100% 29.72 in 10.0 mi North 5.8 mph - N/A   Clear
12:36 PM 23.0 °F - 21.2 °F 93% 29.72 in 10.0 mi Calm Calm - N/A   Clear
12:56 PM 24.8 °F 19.1 °F 21.2 °F 86% 29.71 in 10.0 mi NNE 4.6 mph - N/A   Clear
1:16 PM 23.0 °F 17.0 °F 21.2 °F 93% 29.72 in 10.0 mi ENE 4.6 mph - N/A   Clear
1:36 PM 23.0 °F 17.0 °F 21.2 °F 93% 29.72 in 10.0 mi ENE 4.6 mph - N/A   Clear
1:56 PM 21.2 °F 16.4 °F 19.4 °F 93% 29.72 in 10.0 mi NNE 3.5 mph - N/A   Partly Cloudy
2:16 PM 21.2 °F - 19.4 °F 93% 29.71 in 10.0 mi Calm Calm - N/A   Clear
2:36 PM 19.4 °F - 19.4 °F 100% 29.70 in 10.0 mi Calm Calm - N/A   Clear
2:56 PM 23.0 °F 13.1 °F 21.2 °F 93% 29.70 in 10.0 mi WSW 9.2 mph - N/A   Clear
3:16 PM 24.8 °F 15.3 °F 19.4 °F 80% 29.70 in 10.0 mi West 9.2 mph - N/A   Clear
3:36 PM 23.0 °F 11.7 °F 17.6 °F 80% 29.71 in 10.0 mi West 11.5 mph - N/A   Clear
3:56 PM 24.8 °F 12.9 °F 17.6 °F 74% 29.70 in 10.0 mi West 13.8 mph - N/A   Clear
4:16 PM 23.0 °F 10.6 °F 15.8 °F 74% 29.69 in 10.0 mi West 13.8 mph - N/A   Clear
4:36 PM 21.2 °F 7.8 °F 15.8 °F 80% 29.69 in 10.0 mi West 15.0 mph - N/A   Clear
4:56 PM 24.8 °F 16.9 °F 15.8 °F 69% 29.70 in 10.0 mi West 6.9 mph - N/A   Clear
5:16 PM 23.0 °F 11.1 °F 14.0 °F 68% 29.71 in 10.0 mi West 12.7 mph - N/A   Scattered Clouds
5:36 PM 24.8 °F 12.4 °F 17.6 °F 74% 29.71 in 10.0 mi West 15.0 mph - N/A   Overcast
5:56 PM 24.8 °F 13.4 °F 17.6 °F 74% 29.72 in 10.0 mi West 12.7 mph - N/A   Overcast
6:16 PM 24.8 °F 13.4 °F 15.8 °F 69% 29.73 in 10.0 mi West 12.7 mph - N/A   Overcast
6:36 PM 24.8 °F 14.0 °F 15.8 °F 69% 29.74 in 10.0 mi West 11.5 mph - N/A   Overcast
6:56 PM 24.8 °F 15.3 °F 15.8 °F 69% 29.74 in 10.0 mi West 9.2 mph - N/A   Overcast
7:16 PM 24.8 °F 14.0 °F 15.8 °F 69% 29.74 in 10.0 mi West 11.5 mph - N/A   Overcast
7:36 PM 23.0 °F 12.4 °F 15.8 °F 74% 29.73 in 10.0 mi West 10.4 mph - N/A   Scattered Clouds
7:56 PM 21.2 °F 10.1 °F 12.2 °F 68% 29.74 in 10.0 mi West 10.4 mph - N/A   Clear
8:16 PM 23.0 °F 13.1 °F 15.8 °F 74% 29.75 in 10.0 mi WNW 9.2 mph - N/A   Clear
8:36 PM 21.2 °F 10.1 °F 12.2 °F 68% 29.74 in 10.0 mi West 10.4 mph - N/A   Clear
8:56 PM 19.4 °F 7.2 °F 12.2 °F 74% 29.75 in 10.0 mi West 11.5 mph - N/A   Clear
9:16 PM 19.4 °F 7.2 °F 10.4 °F 68% 29.75 in 10.0 mi West 11.5 mph - N/A   Clear
9:56 PM 19.4 °F 9.5 °F 14.0 °F 80% 29.78 in 10.0 mi West 8.1 mph - N/A   Partly Cloudy
10:16 PM 17.6 °F 8.2 °F 10.4 °F 73% 29.78 in 10.0 mi WSW 6.9 mph - N/A   Partly Cloudy
10:36 PM 17.6 °F 7.3 °F 12.2 °F 79% 29.79 in 10.0 mi West 8.1 mph - N/A   Clear
10:56 PM 19.4 °F 10.4 °F 10.4 °F 68% 29.80 in 10.0 mi WNW 6.9 mph - N/A   Partly Cloudy
11:16 PM 19.4 °F - 10.4 °F 68% 29.80 in 10.0 mi Calm Calm - N/A   Scattered Clouds
11:36 PM 21.2 °F 11.7 °F 10.4 °F 63% 29.81 in 10.0 mi NNE 8.1 mph - N/A   Mostly Cloudy
11:56 PM 21.2 °F 16.4 °F 12.2 °F 68% 29.82 in 10.0 mi West 3.5 mph - N/A   Overcast